Tracking 30260 objects as of 14-Feb-2025
HD Live streaming from Space Station
objects crossing your sky now

NOAA 17 DEB

Track NOAA 17 DEB now!
10-day predictions


NORAD ID: 48722
Int'l Code: 2002-032BG
Perigee: 671.3 km
Apogee: 697.0 km
Inclination: 98.7 °
Period: 98.3 minutes
Semi major axis: 7055 km
RCS: Unknown
Launch date: June 24, 2002
Source: United States (US)
Launch site: AIR FORCE WESTERN TEST RANGE (AFWTR)

Note: This is SATELLITE DEBRIS
Your satellite tracking list
Your tracking list is empty




NASA's NSSDC Master Catalog

Two Line Element Set (TLE):
1 48722U 02032BF  25045.41652128  .00031827  00000-0  59050-2 0  9997
2 48722  98.7131  35.8967 0018253  46.0552 314.2152 14.65026477205853
Source of the keplerian elements: AFSPC